Home   Weather   Killeen   Past weeks
Flag for USA

Past Weather in Killeen, Texas, USA — Yesterday and Last 2 Weeks

Now
91 °F

Passing clouds.


Feels Like: 99 °F
Forecast: 96 / 75 °F
Wind: N/A

Location: Killeen Municipal

Current Time: Jul 19, 2019 at 1:58:14 pm

Latest Report: Jul 19, 2019 at 1:08 pm


Visibility: 10 mi

Pressure: 30.00 "Hg

Humidity: 52%

Dew Point: 72 °F

Location of KilleenLocation

Past Weather in Killeen — Graph

°F

Killeen Temperature Yesterday

Maximum temperature yesterday: 95 °F (at 3:56 pm)
Minimum temperature yesterday: 75 °F (at 4:56 am)
Average temperature yesterday: 85 °F

High & Low Weather Summary for the Past Weeks

 TemperatureHumidityPressure
High96 °F (Jul 10, 2:56 pm)97% (Jul 8, 11:56 pm)30.12 "Hg (Jul 8, 11:56 pm)
Low71 °F (Jul 10, 10:56 pm)41% (Jul 12, 3:56 pm)29.78 "Hg (Jul 12, 6:56 pm)
Average84 °F71%29.94 "Hg
* Reported Jul 4 1:11 pm — Jul 19 1:08 pm, Killeen. Weather by CustomWeather, © 2019

Note: Actual official high and low records may vary slightly from our data, if they occured in-between our weather recording intervals... More about our weather records

Advertising

Killeen Weather History for the Previous 24 Hours

Scroll right to see more
 ConditionsComfort  
Time TempWeatherWind HumidityBarometerVisibility
1:08 pm
Fri, Jul 19
91 °FPassing clouds.N/A52%30.00 "Hg10 mi
12:56 pm91 °FSunny.N/A54%29.96 "Hg10 mi
12:16 pm90 °FPassing clouds.N/A55%30.01 "Hg10 mi
11:56 am88 °FSunny.N/A59%29.96 "Hg10 mi
10:56 am87 °FSunny.N/A61%29.97 "Hg10 mi
9:56 am84 °FSunny.N/A67%29.97 "Hg10 mi
9:32 am82 °FPassing clouds.N/A70%30.01 "Hg10 mi
8:56 am79 °FOvercast.N/A79%29.97 "Hg10 mi
8:17 am79 °FPartly sunny.N/A79%30.01 "Hg10 mi
7:56 am77 °FSunny.N/A85%29.96 "Hg10 mi
6:56 am73 °FSunny.N/A94%29.95 "Hg10 mi
5:56 am75 °FClear.N/A88%29.93 "Hg10 mi
4:56 am76 °FClear.N/A85%29.93 "Hg10 mi
3:56 am77 °FClear.N/A79%29.92 "Hg10 mi
2:56 am78 °FClear.N/A76%29.93 "Hg10 mi
1:56 am80 °FClear.N/A79%29.93 "Hg10 mi
12:56 am81 °FClear.N/A77%29.93 "Hg10 mi
11:56 pm
Thu, Jul 18
83 °FClear.N/A72%29.92 "Hg10 mi
10:56 pm85 °FClear.N/A68%29.91 "Hg10 mi
9:56 pm87 °FClear.N/A63%29.89 "Hg10 mi
8:56 pm89 °FClear.N/A53%29.87 "Hg10 mi
7:56 pm92 °FSunny.N/A47%29.86 "Hg10 mi
6:56 pm94 °FScattered clouds.N/A46%29.86 "Hg10 mi
5:56 pm95 °FPassing clouds.N/A46%29.87 "Hg10 mi
4:56 pm95 °FScattered clouds.N/A46%29.88 "Hg10 mi
3:56 pm95 °FScattered clouds.N/A46%29.91 "Hg10 mi
2:56 pm94 °FScattered clouds.N/A49%29.93 "Hg10 mi
1:56 pm93 °FSunny.N/A49%29.94 "Hg7 mi
Weather by CustomWeather, © 2019

See weather overview